Flag for Canada Weather past 2 weeks in Rankin Inlet, Nunavut, Canada

Now
55 °F

Broken clouds.


Feels Like: 54 °F
Forecast: 46 / 65 °F
Wind: 7 mph from South

Location: Rankin Inlet

Current Time: Jun 30, 2015 at 7:39:40 PM

Latest Report: Jun 30, 2015 at 6:00 PM


Visibility: 15 mi

Pressure: 29.84 "Hg

Humidity: 55%

Dew point: 39 °F

Location of Rankin InletLocation

Historic Weather in Rankin Inlet — Graph

°F

Rankin Inlet temperature yesterday

Maximum temperature yesterday: 61 °F (at 4:00 PM)
Minimum temperature yesterday: 41 °F (at 2:00 AM)
Average temperature yesterday: 52 °F

Past Weeks' High & Low Weather Summary

 TemperatureHumidityPressure
High63 °F (Jun 30, 3:00 PM)100% (Jun 16, 4:00 AM)29.95 "Hg (Jun 16, 4:00 AM)
Low32 °F (Jun 16, 4:00 AM)42% (Jun 30, 3:00 PM)29.38 "Hg (Jun 21, 9:00 AM)
Average43 °F77%29.73 "Hg
* Reported Jun 15 6:00 PM — Jun 30 6:00 PM, Rankin Inlet, Weather by CustomWeather, © 2015

Note: Actual official high and low records may vary slightly from our data, if they occured in-between our weather recording intervals... More about our weather records

Advertising

Rankin Inlet weather history for previous 24 hours

 ConditionsComfort  
Time TempWeatherWind HumidityBarometerVisibility
6:00 PM
Tue, Jun 30
55 °FBroken clouds.7 mph55%29.84 "Hg15 mi
5:00 PM55 °FPartly sunny.8 mph51%29.84 "Hg15 mi
4:00 PM57 °FPartly sunny.7 mph48%29.84 "Hg15 mi
3:00 PM63 °FBroken clouds.16 mph42%29.84 "Hg15 mi
2:00 PM61 °FBroken clouds.13 mph48%29.83 "Hg15 mi
1:00 PM61 °FBroken clouds.17 mph48%29.83 "Hg15 mi
12:00 PM61 °FScattered clouds.14 mph48%29.84 "Hg15 mi
11:00 AM59 °FScattered clouds.18 mph51%29.84 "Hg15 mi
10:00 AM57 °FScattered clouds.14 mph59%29.84 "Hg15 mi
9:00 AM54 °FScattered clouds.9 mph67%29.85 "Hg15 mi
8:00 AM52 °FScattered clouds.8 mph72%29.86 "Hg15 mi
7:00 AM45 °FScattered clouds.5 mph87%29.87 "Hg15 mi
6:00 AM43 °FScattered clouds.3 mph87%29.88 "Hg15 mi
5:00 AM39 °FPassing clouds.2 mph93%29.88 "Hg15 mi
4:00 AM41 °FClear.2 mph87%29.88 "Hg15 mi
3:00 AM41 °FClear.6 mph87%29.88 "Hg15 mi
2:00 AM43 °FPassing clouds.3 mph81%29.88 "Hg15 mi
1:00 AM46 °FPassing clouds.5 mph76%29.87 "Hg15 mi
12:00 AM46 °FScattered clouds.8 mph76%29.87 "Hg15 mi
11:00 PM
Mon, Jun 29
50 °FBroken clouds.9 mph71%29.87 "Hg15 mi
10:00 PM54 °FBroken clouds.10 mph63%29.86 "Hg15 mi
9:00 PM57 °FBroken clouds.12 mph55%29.87 "Hg15 mi
8:00 PM59 °FScattered clouds.14 mph51%29.88 "Hg15 mi
7:00 PM61 °FBroken clouds.18 mph45%29.89 "Hg15 mi
Weather by CustomWeather, © 2015

See weather overviewHow to use our weather pages